Weather in Uska-Orochskaya

Russia / Khabarovsk Krai     49°21′01″N   140°02′52″E
temp.,
°C
wind,
m/s
gust,
m/s
humid.,
%
clouds,
%
prec.,
mm/h
press.,
hPa
HPBL,
m
27 february, sat
sat2701:00−19wnw358897 0.0 102996
04:00−22wnw368856 0.0 1030105
07:00−22wnw36880 0.0 1031120
10:00−17wnw36830 0.0 1031207
13:00−9wnw24750 0.0 1029393
16:00−6wsw14705 0.0 1027700
19:00−12s229090 0.0 102724
22:00−11ssw129096 0.0 102424
28 february, sun
sun2801:00−10ssw1188100 0.0 102021
04:00−9wsw1193100 0.5 101621
07:00−9sw1281100 0.0 101421
10:00−5wsw31077100 0.0 1012954
13:00−2nw2779100 0.0 1012810
16:000w4117285 0.0 10111578
19:00−7w487295 0.0 1013225
22:00−12w128398 0.0 101556
1 march, mon
mon101:00−15wsw348295 0.0 101786
04:00−18w338647 0.0 101960
07:00−19wnw48810 0.0 1021175
10:00−16wnw410720 0.0 1023704
13:00−13w246526 0.0 10231214
16:00−13wsw347061 0.1 1024908
19:00−18w6147292 0.2 1026501
22:00−19w5147762 0.2 1028654
2 march, tue
tue201:00−20w614750 0.0 1028561
04:00−21w513720 0.0 1028546
07:00−22wnw515720 0.0 1029547
10:00−20wnw48720 0.0 1029432
13:00−16nw35600 0.0 10281099
16:00−15nnw366131 0.0 10271533
19:00−21nw127960 0.0 102820
22:00−23wnw228030 0.0 102920
3 march, wed
wed301:00−25w22830 0.0 102821
04:00−27w23850 0.0 102831
07:00−27wnw33860 0.0 102857
10:00−19wnw25810 0.0 1027241
13:00−11w36660 0.0 1024973
16:00−11sse358449 0.0 1021515
19:00−14s229599 0.1 101923
22:00−15ssw338470 0.1 101858